This is the latest recevied weather packets stored in our database for station/object DH0GMA. If no packets are shown the sender has not sent any weather packets the latest 10 day(s).
| Time | Temp. | Humidity | Pressure | Rain* | Wind** | Luminosity | Snow |
|---|---|---|---|---|---|---|---|
| 1777684504 | 8.33° C | 70% | 1023.5 hPa | 0 mm | - | - | - |
| 1777683904 | 8.89° C | 68% | 1023.3 hPa | 0 mm | - | - | - |
| 1777683303 | 8.89° C | 67% | 1023.3 hPa | 0 mm | - | - | - |
| 1777682703 | 9.44° C | 67% | 1023.3 hPa | 0 mm | - | - | - |
| 1777682103 | 8.89° C | 68% | 1023.5 hPa | 0 mm | - | - | - |
| 1777681505 | 8.89° C | 68% | 1023.5 hPa | 0 mm | - | - | - |
| 1777680905 | 8.33° C | 70% | 1023.6 hPa | 0 mm | - | - | - |
| 1777680305 | 8.33° C | 70% | 1023.7 hPa | 0 mm | - | - | - |
| 1777679705 | 8.33° C | 70% | 1023.7 hPa | 0 mm | - | - | - |
| 1777679105 | 8.33° C | 69% | 1023.8 hPa | 0 mm | - | - | - |
| 1777678504 | 8.89° C | 68% | 1023.9 hPa | 0 mm | - | - | - |
| 1777677904 | 9.44° C | 67% | 1024 hPa | 0 mm | - | - | - |
| 1777677304 | 9.44° C | 65% | 1024 hPa | 0 mm | - | - | - |
| 1777676704 | 10° C | 63% | 1024.2 hPa | 0 mm | - | - | - |
| 1777676104 | 10.56° C | 62% | 1024.1 hPa | 0 mm | - | - | - |
| 1777675503 | 10.56° C | 61% | 1024 hPa | 0 mm | - | - | - |
| 1777674903 | 11.11° C | 60% | 1024.1 hPa | 0 mm | - | - | - |
| 1777674306 | 11.67° C | 59% | 1024.1 hPa | 0 mm | - | - | - |
| 1777673705 | 11.67° C | 58% | 1024.1 hPa | 0 mm | - | - | - |
| 1777673105 | 12.22° C | 57% | 1024.2 hPa | 0 mm | - | - | - |
| 1777672505 | 12.22° C | 56% | 1024.1 hPa | 0 mm | - | - | - |
| 1777671904 | 12.22° C | 56% | 1024.2 hPa | 0 mm | - | - | - |
| 1777671304 | 12.78° C | 55% | 1024.3 hPa | 0 mm | - | - | - |
| 1777670702 | 12.78° C | 54% | 1024.2 hPa | 0 mm | - | - | - |
| 1777670104 | 13.33° C | 54% | 1024.3 hPa | 0 mm | - | - | - |
* Rain latest hour (hover to see other rain measurements)
** Current wind speed in m/s (hover to see current wind gust speed)